TimeMDT,TemperatureF,Dew PointF,Humidity,Sea Level PressureIn,VisibilityMPH,Wind Direction,Wind SpeedMPH,Gust SpeedMPH,PrecipitationIn,Events,Conditions,WindDirDegrees,DateUTC
12:56 AM,51.1,46.0,83,30.21,-9999.0,Calm,Calm,-,N/A,,Unknown,0,2013-07-18 06:56:00
1:56 AM,48.9,44.1,83,30.21,-9999.0,Calm,Calm,-,N/A,,Unknown,0,2013-07-18 07:56:00
2:56 AM,46.9,43.0,86,30.18,-9999.0,Calm,Calm,-,N/A,,Unknown,0,2013-07-18 08:56:00
3:56 AM,46.0,43.0,89,30.19,-9999.0,Calm,Calm,-,N/A,,Unknown,0,2013-07-18 09:56:00
4:56 AM,45.0,43.0,93,30.17,-9999.0,Calm,Calm,-,N/A,,Unknown,0,2013-07-18 10:56:00
5:56 AM,45.0,43.0,93,30.19,-9999.0,Calm,Calm,-,N/A,,Unknown,0,2013-07-18 11:56:00
6:56 AM,48.9,45.0,86,30.17,-9999.0,Calm,Calm,-,N/A,,Unknown,0,2013-07-18 12:56:00
7:56 AM,57.0,50.0,77,30.18,-9999.0,Calm,Calm,-,N/A,,Unknown,0,2013-07-18 13:56:00
8:56 AM,59.0,52.0,78,30.21,-9999.0,Calm,Calm,-,N/A,,Unknown,0,2013-07-18 14:56:00
9:56 AM,61.0,51.1,70,30.19,-9999.0,Variable,3.5,-,N/A,,Unknown,0,2013-07-18 15:56:00
10:56 AM,66.0,52.0,60,30.18,-9999.0,East,4.6,-,N/A,,Unknown,100,2013-07-18 16:56:00
11:56 AM,66.9,52.0,59,30.18,-9999.0,Variable,3.5,-,N/A,,Unknown,0,2013-07-18 17:56:00
12:56 PM,75.9,30.9,19,30.14,-9999.0,NW,10.4,16.1,N/A,,Unknown,310,2013-07-18 18:56:00
1:56 PM,77.0,30.0,18,30.15,-9999.0,Variable,5.8,-,N/A,,Unknown,0,2013-07-18 19:56:00
2:56 PM,78.1,33.1,19,30.14,-9999.0,Variable,6.9,20.7,N/A,,Unknown,0,2013-07-18 20:56:00
3:56 PM,78.1,37.0,23,30.14,-9999.0,WSW,9.2,18.4,N/A,,Unknown,250,2013-07-18 21:56:00
4:56 PM,77.0,35.1,22,30.13,-9999.0,West,10.4,16.1,N/A,,Unknown,270,2013-07-18 22:56:00
5:56 PM,77.0,27.0,16,30.13,-9999.0,West,10.4,16.1,N/A,,Unknown,270,2013-07-18 23:56:00
6:56 PM,75.9,30.0,19,30.11,-9999.0,Calm,Calm,-,N/A,,Unknown,0,2013-07-19 00:56:00
7:56 PM,73.9,35.1,24,30.09,-9999.0,Variable,3.5,-,N/A,,Unknown,0,2013-07-19 01:56:00
8:56 PM,63.0,39.9,43,30.15,-9999.0,WNW,3.5,-,N/A,,Unknown,290,2013-07-19 02:56:00
9:56 PM,55.9,39.0,53,30.18,-9999.0,WNW,3.5,-,N/A,,Unknown,300,2013-07-19 03:56:00
10:56 PM,52.0,37.9,59,30.19,-9999.0,NW,3.5,-,N/A,,Unknown,310,2013-07-19 04:56:00
11:56 PM,48.0,39.0,71,30.19,-9999.0,Calm,Calm,-,N/A,,Unknown,0,2013-07-19 05:56:00